Great Bend, KS

12:21 AM CDT on March 24, 2017 (GMT -0500)
Great Bend Municipal

Weather History for KGBD - April, 2014

Change the Weather History Date:

Monday, April 21, 2014

  Actual Average Record
Temperature  
Mean Temperature 60 °F -  
Max Temperature 77 °F 68 °F 92 °F (1953)
Min Temperature 44 °F 43 °F 24 °F (1966)
Degree Days  
Heating Degree Days 4    
Growing Degree Days 10 (Base 50)    
Moisture  
Dew Point 44 °F    
Average Humidity 55    
Maximum Humidity 88    
Minimum Humidity 19    
Precipitation  
Precipitation 0.02 in - - ()
Sea Level Pressure  
Sea Level Pressure 30.05 in    
Wind  
Wind Speed 10 mph (North)    
Max Wind Speed 24 mph    
Max Gust Speed 30 mph    
Visibility 10 miles    
Events      
Averages and records for this station are not official NWS values.
T = Trace of Precipitation, MM = Missing Value Source: NWS Daily Summary

Daily Weather History Graph

Daily Weather History Graph

Search for Another Location

Airport or City:

Trip Planner

Search our weather history database for the weather conditions in past years. The results will help you decide how hot, cold, wet, or windy it might be!

Date:

Astronomy

Apr. 21, 2014 Rise Set
Actual Time 6:51 AM CDT 8:17 PM CDT
Civil Twilight 6:23 AM CDT 8:45 PM CDT
Nautical Twilight 5:50 AM CDT 9:18 PM CDT
Astronomical Twilight 5:15 AM CDT 9:53 PM CDT
Moon 1:47 AM CDT (4/21) 12:20 PM CDT (4/21)
Length of Visible Light 14h 21m
Length of Day
13h 26m
Waning Gibbous, 57% of the Moon is Illuminated
Apr 21
Waning Gibbous
Apr 22
Last Quarter
Apr 29
New
May 6
First Quarter
May 14
Full

Hourly Weather History & Observations

Time (CDT) Temp. Windchill Dew Point Humidity Pressure Visibility Wind Dir Wind Speed Gust Speed Precip Events Conditions
12:15 AM 57.2 °F - 50.0 °F 77% 29.97 in 10.0 mi SSW 6.9 mph - N/A   Scattered Clouds
12:35 AM 57.2 °F - 48.2 °F 72% 30.00 in 10.0 mi NW 10.4 mph - N/A   Overcast
12:55 AM 59.0 °F - 50.0 °F 72% 30.00 in 10.0 mi West 12.7 mph - N/A   Overcast
1:15 AM 59.0 °F - 50.0 °F 72% 30.00 in 10.0 mi West 9.2 mph - N/A   Overcast
1:35 AM 59.0 °F - 51.8 °F 77% 29.99 in 10.0 mi WSW 8.1 mph - N/A   Overcast
1:55 AM 57.2 °F - 50.0 °F 77% 29.98 in 10.0 mi WSW 9.2 mph - N/A   Scattered Clouds
2:15 AM 57.2 °F - 48.2 °F 72% 29.97 in 10.0 mi SW 5.8 mph - N/A   Clear
2:35 AM 55.4 °F - 48.2 °F 77% 29.96 in 10.0 mi SSW 8.1 mph - N/A   Clear
2:55 AM 55.4 °F - 48.2 °F 77% 29.96 in 10.0 mi SSW 10.4 mph - N/A   Clear
3:15 AM 53.6 °F - 46.4 °F 77% 29.96 in 10.0 mi South 8.1 mph - N/A   Clear
3:35 AM 51.8 °F - 46.4 °F 82% 29.95 in 10.0 mi SSW 8.1 mph - N/A   Clear
3:55 AM 51.8 °F - 46.4 °F 82% 29.95 in 10.0 mi South 8.1 mph - N/A   Clear
4:15 AM 53.6 °F - 46.4 °F 77% 29.97 in 10.0 mi East 3.5 mph - N/A   Partly Cloudy
4:35 AM 55.4 °F - 48.2 °F 77% 29.97 in 10.0 mi WNW 4.6 mph - N/A   Mostly Cloudy
4:55 AM 53.6 °F - 48.2 °F 82% 29.97 in 10.0 mi Calm Calm - N/A   Overcast
5:15 AM 53.6 °F - 48.2 °F 82% 29.97 in 10.0 mi Calm Calm - N/A   Overcast
5:35 AM 53.6 °F - 48.2 °F 82% 29.98 in 10.0 mi Calm Calm - 0.01 in   Overcast
5:55 AM 53.6 °F - 48.2 °F 82% 29.99 in 10.0 mi Calm Calm - 0.01 in   Overcast
6:15 AM 53.6 °F - 48.2 °F 82% 30.00 in 10.0 mi Calm Calm - N/A   Overcast
6:35 AM 53.6 °F - 48.2 °F 82% 30.02 in 10.0 mi Calm Calm - N/A   Overcast
6:55 AM 55.4 °F - 50.0 °F 82% 30.04 in 10.0 mi North 6.9 mph - N/A   Overcast
7:15 AM 55.4 °F - 51.8 °F 88% 30.04 in 10.0 mi NE 10.4 mph - 0.01 in   Overcast
7:35 AM 55.4 °F - 51.8 °F 88% 30.04 in 10.0 mi ENE 5.8 mph - 0.01 in   Mostly Cloudy
7:55 AM 55.4 °F - 51.8 °F 88% 30.05 in 10.0 mi NNE 4.6 mph - 0.01 in   Scattered Clouds
8:15 AM 55.4 °F - 51.8 °F 88% 30.03 in 10.0 mi NE 8.1 mph - N/A   Mostly Cloudy
8:35 AM 57.2 °F - 51.8 °F 82% 30.01 in 10.0 mi East 8.1 mph - N/A   Mostly Cloudy
8:55 AM 57.2 °F - 53.6 °F 88% 30.03 in 10.0 mi NNE 6.9 mph - N/A   Mostly Cloudy
9:15 AM 60.8 °F - 53.6 °F 77% 30.04 in 10.0 mi NNE 8.1 mph - N/A   Partly Cloudy
9:35 AM 60.8 °F - 53.6 °F 77% 30.04 in 10.0 mi NNE 6.9 mph - N/A   Clear
9:55 AM 62.6 °F - 55.4 °F 77% 30.05 in 10.0 mi North 9.2 mph - N/A   Clear
10:15 AM 66.2 °F - 55.4 °F 68% 30.06 in 10.0 mi North 12.7 mph - N/A   Clear
10:35 AM 69.8 °F - 51.8 °F 53% 30.06 in 10.0 mi NNE 16.1 mph - N/A   Clear
10:55 AM 69.8 °F - 51.8 °F 53% 30.08 in 10.0 mi NNE 19.6 mph 24.2 mph N/A   Clear
11:15 AM 69.8 °F - 51.8 °F 53% 30.08 in 10.0 mi NNE 20.7 mph 27.6 mph N/A   Clear
11:35 AM 69.8 °F - 53.6 °F 56% 30.09 in 10.0 mi North 20.7 mph 24.2 mph N/A   Clear
11:55 AM 71.6 °F - 53.6 °F 53% 30.09 in 10.0 mi North 19.6 mph 26.5 mph N/A   Partly Cloudy
12:15 PM 71.6 °F - 53.6 °F 53% 30.09 in 10.0 mi North 20.7 mph 25.3 mph N/A   Partly Cloudy
12:35 PM 71.6 °F - 53.6 °F 53% 30.08 in 10.0 mi NNW 21.9 mph - N/A   Clear
12:55 PM 73.4 °F - 51.8 °F 47% 30.08 in 10.0 mi North 19.6 mph 25.3 mph N/A   Clear
1:15 PM 73.4 °F - 51.8 °F 47% 30.08 in 10.0 mi North 18.4 mph 27.6 mph N/A   Clear
1:35 PM 75.2 °F - 50.0 °F 41% 30.07 in 10.0 mi North 16.1 mph 26.5 mph N/A   Clear
1:55 PM 75.2 °F - 48.2 °F 38% 30.07 in 10.0 mi NNE 16.1 mph 25.3 mph N/A   Clear
2:15 PM 75.2 °F - 46.4 °F 36% 30.07 in 10.0 mi North 18.4 mph 24.2 mph N/A   Clear
2:35 PM 77.0 °F - 44.6 °F 32% 30.07 in 10.0 mi NNE 21.9 mph 29.9 mph N/A   Clear
2:55 PM 77.0 °F - 42.8 °F 29% 30.07 in 10.0 mi North 19.6 mph 25.3 mph N/A   Clear
3:15 PM 77.0 °F - 39.2 °F 26% 30.07 in 10.0 mi North 19.6 mph 27.6 mph N/A   Clear
3:35 PM 77.0 °F - 39.2 °F 26% 30.07 in 10.0 mi NNE 21.9 mph 26.5 mph N/A   Clear
3:55 PM 77.0 °F - 37.4 °F 24% 30.07 in 10.0 mi North 23.0 mph 26.5 mph N/A   Clear
4:15 PM 77.0 °F - 37.4 °F 24% 30.06 in 10.0 mi North 20.7 mph 27.6 mph N/A   Clear
4:35 PM 77.0 °F - 37.4 °F 24% 30.06 in 10.0 mi North 24.2 mph 27.6 mph N/A   Clear
4:55 PM 77.0 °F - 35.6 °F 22% 30.06 in 10.0 mi North 19.6 mph 26.5 mph N/A   Clear
5:15 PM 77.0 °F - 35.6 °F 22% 30.06 in 10.0 mi North 19.6 mph 25.3 mph N/A   Clear
5:35 PM 77.0 °F - 33.8 °F 21% 30.07 in 10.0 mi North 18.4 mph 26.5 mph N/A   Clear
5:55 PM 75.2 °F - 33.8 °F 22% 30.07 in 10.0 mi North 19.6 mph 24.2 mph N/A   Clear
6:15 PM 75.2 °F - 30.2 °F 19% 30.07 in 10.0 mi North 20.7 mph 25.3 mph N/A   Clear
6:35 PM 73.4 °F - 30.2 °F 20% 30.08 in 10.0 mi NNE 18.4 mph - N/A   Clear
6:55 PM 73.4 °F - 32.0 °F 22% 30.08 in 10.0 mi NNE 18.4 mph - N/A   Clear
7:15 PM 71.6 °F - 30.2 °F 22% 30.08 in 10.0 mi NNE 15.0 mph 23.0 mph N/A   Clear
7:35 PM 71.6 °F - 30.2 °F 22% 30.09 in 10.0 mi NNE 13.8 mph - N/A   Clear
7:55 PM 69.8 °F - 32.0 °F 25% 30.08 in 10.0 mi NNE 9.2 mph - N/A   Clear
8:15 PM 64.4 °F - 32.0 °F 30% 30.09 in 10.0 mi NNE 8.1 mph - N/A   Clear
8:35 PM 60.8 °F - 32.0 °F 34% 30.10 in 10.0 mi NNE 6.9 mph - N/A   Clear
8:55 PM 60.8 °F - 33.8 °F 36% 30.10 in 10.0 mi NNE 5.8 mph - N/A   Clear
9:15 PM 57.2 °F - 32.0 °F 38% 30.10 in 10.0 mi North 4.6 mph - N/A   Clear
9:35 PM 55.4 °F - 30.2 °F 38% 30.12 in 7.0 mi North 5.8 mph - N/A   Clear
9:55 PM 53.6 °F - 30.2 °F 41% 30.12 in 10.0 mi North 5.8 mph - N/A   Clear
10:15 PM 51.8 °F - 30.2 °F 44% 30.13 in 10.0 mi North 8.1 mph - N/A   Clear
10:35 PM 48.2 °F - 30.2 °F 50% 30.13 in 10.0 mi NNW 4.6 mph - N/A   Clear
10:55 PM 46.4 °F 45.2 °F 28.4 °F 50% 30.14 in 10.0 mi NNW 3.5 mph - N/A   Clear
11:15 PM 46.4 °F 43.5 °F 30.2 °F 53% 30.14 in 10.0 mi NNW 5.8 mph - N/A   Clear
11:35 PM 44.6 °F 43.1 °F 30.2 °F 57% 30.14 in 10.0 mi North 3.5 mph - N/A   Clear
11:55 PM 46.4 °F 43.5 °F 28.4 °F 50% 30.14 in 10.0 mi North 5.8 mph - N/A   Clear